Location: Gallinara
(44.0333°N, 8.2333°E)
Time: 01:29:39
(UTC+00:00)

Spot 4 Rocket - Pass Details

Date: 25 September 2020
Orbit: 776 x 782 km, 98.7° (Epoch: 31 October)

Event Time Altitude Azimuth Distance (km) Brightness Sun altitude
Rises 02:53:09 0° 12° (NNE) 3,269 7.8 -26.0°
Reaches altitude 10° 02:55:29 10° 11° (N) 2,337 6.9 -25.6°
Maximum altitude 03:00:37 76° 286° (WNW) 803 3.9 -24.8°
Enters shadow 03:01:00 72° 244° (WSW) 819 3.8 -24.7°
